Tracking 19832 objects as of 24-Aug-2019
HD Live streaming from Space Station
objects crossing your sky now

FENGYUN 1C DEB

Track FENGYUN 1C DEB now!
10-day predictions


NORAD ID: 36661
Int'l Code: 1999-025DYF
Perigee: 813.8 km
Apogee: 851.3 km
Inclination: 99.0 °
Period: 101.4 minutes
Semi major axis: 7203 km
RCS: 0.0121 m2 (small)
Launch date: May 10, 1999
Source: People's Republic of China (PRC)
Launch site: Taiyaun Space Center, China (TSC)

Note: This is SATELLITE DEBRIS
aabbcc
Your satellite tracking list
Your tracking list is empty




NASA's NSSDC Master Catalog

Two Line Element Set (TLE):
1 36661U 99025DYF 19234.35186521 +.00000400 +00000-0 +20870-3 0  9991
2 36661 098.9735 278.8317 0026034 111.7170 308.0766 14.19992004316867
Source of the keplerian elements: AFSPC